| time (UTC) | temp C | wind direction | speed KPH | gust KPH | rain 1hr cm | rain 24hr cm | rain mn cm | humidity % | barometer mb |
| 20260506002507 | 25 | 330 | 1.6 | 8.0 | 0.00 | 0.00 | 0.00 | 50 | 1004.2 |
| 20260506002003 | 25 | 1 | 3.2 | 8.0 | 0.00 | 0.00 | 0.00 | 49 | 1004.4 |
| 20260506001503 | 25 | 338 | 1.6 | 11.3 | 0.00 | 0.00 | 0.00 | 49 | 1004.4 |
| 20260506001002 | 25 | 353 | 3.2 | 11.3 | 0.00 | 0.00 | 0.00 | 48 | 1004.4 |
| 20260506000503 | 26 | 20 | 1.6 | 12.9 | 0.00 | 0.00 | 0.00 | 48 | 1004.1 |
| 20260506000125 | 26 | 355 | 4.8 | 12.9 | 0.00 | 0.00 | 0.00 | 48 | 1003.7 |
| 20260505235501 | 26 | 352 | 3.2 | 6.4 | 0.00 | 0.00 | 0.00 | 48 | 1003.6 |
| 20260505235100 | 26 | 4 | 3.2 | 9.7 | 0.00 | 0.00 | 0.00 | 47 | 1003.5 |
| 20260505234057 | 27 | 347 | 3.2 | 16.1 | 0.00 | 0.00 | 0.00 | 46 | 1003.5 |
| 20260505233556 | 27 | 339 | 4.8 | 17.7 | 0.00 | 0.00 | 0.00 | 45 | 1003.6 |
| 20260505233056 | 28 | 18 | 6.4 | 17.7 | 0.00 | 0.00 | 0.00 | 44 | 1003.6 |
| 20260505232556 | 28 | 5 | 3.2 | 12.9 | 0.00 | 0.00 | 0.00 | 42 | 1003.4 |
| 20260505232054 | 28 | 5 | 4.8 | 12.9 | 0.00 | 0.00 | 0.00 | 40 | 1003.3 |
| 20260505231558 | 29 | 13 | 1.6 | 12.9 | 0.00 | 0.00 | 0.00 | 40 | 1003.2 |
| 20260505231053 | 29 | 320 | 1.6 | 12.9 | 0.00 | 0.00 | 0.00 | 38 | 1003.1 |
| 20260505230554 | 30 | 338 | 6.4 | 11.3 | 0.00 | 0.00 | 0.00 | 37 | 1002.9 |
| 20260505230052 | 30 | 300 | 1.6 | 8.0 | 0.00 | 0.00 | 0.00 | 36 | 1002.8 |
| 20260505225551 | 31 | 341 | 1.6 | 8.0 | 0.00 | 0.00 | 0.00 | 41 | 1002.6 |
| 20260505225050 | 31 | 144 | 0.0 | 8.0 | 0.00 | 0.00 | 0.00 | 42 | 1002.6 |
| 20260505224052 | 31 | 155 | 0.0 | 8.0 | 0.00 | 0.00 | 0.00 | 42 | 1002.6 |
| 20260505223548 | 31 | 153 | 1.6 | 6.4 | 0.00 | 0.00 | 0.00 | 42 | 1002.5 |
| 20260505223048 | 31 | 162 | 0.0 | 8.0 | 0.00 | 0.00 | 0.00 | 41 | 1002.4 |
| 20260505222548 | 31 | 204 | 1.6 | 8.0 | 0.00 | 0.00 | 0.00 | 39 | 1002.3 |
| 20260505222047 | 31 | 158 | 0.0 | 3.2 | 0.00 | 0.00 | 0.00 | 41 | 1002.3 |
| 20260505221555 | 31 | 143 | 0.0 | 12.9 | 0.00 | 0.00 | 0.00 | 40 | 1002.2 |
| 20260505221046 | 31 | 172 | 1.6 | 12.9 | 0.00 | 0.00 | 0.00 | 41 | 1002.3 |
| 20260505220545 | 31 | 100 | 0.0 | 4.8 | 0.00 | 0.00 | 0.00 | 41 | 1002.3 |
| 20260505215543 | 31 | 86 | 0.0 | 4.8 | 0.00 | 0.00 | 0.00 | 42 | 1002.5 |
| 20260505215042 | 31 | 196 | 0.0 | 4.8 | 0.00 | 0.00 | 0.00 | 41 | 1002.5 |
| 20260505214042 | 31 | 203 | 0.0 | 6.4 | 0.00 | 0.00 | 0.00 | 40 | 1002.5 |
| 20260505213542 | 32 | 154 | 0.0 | 6.4 | 0.00 | 0.00 | 0.00 | 39 | 1002.5 |
| 20260505213040 | 32 | 242 | 0.0 | 8.0 | 0.00 | 0.00 | 0.00 | 43 | 1002.6 |
| 20260505212540 | 32 | 110 | 0.0 | 9.7 | 0.00 | 0.00 | 0.00 | 41 | 1002.6 |
| 20260505212039 | 31 | 131 | 3.2 | 9.7 | 0.00 | 0.00 | 0.00 | 43 | 1002.7 |
| 20260505211607 | 32 | 124 | 0.0 | 4.8 | 0.00 | 0.00 | 0.00 | 41 | 1002.7 |
| 20260505211038 | 31 | 26 | 0.0 | 4.8 | 0.00 | 0.00 | 0.00 | 43 | 1002.8 |
| 20260505210536 | 32 | 144 | 1.6 | 6.4 | 0.00 | 0.00 | 0.00 | 42 | 1002.8 |
| 20260505210042 | 32 | 136 | 1.6 | 9.7 | 0.00 | 0.00 | 0.00 | 42 | 1002.7 |
| 20260505205535 | 32 | 100 | 0.0 | 9.7 | 0.00 | 0.00 | 0.00 | 44 | 1002.9 |
| 20260505205036 | 32 | 185 | 1.6 | 9.7 | 0.00 | 0.00 | 0.00 | 43 | 1003.0 |
| 20260505204035 | 31 | 215 | 1.6 | 9.7 | 0.00 | 0.00 | 0.00 | 43 | 1003.1 |
| 20260505203531 | 31 | 127 | 3.2 | 9.7 | 0.00 | 0.00 | 0.00 | 44 | 1003.3 |
| 20260505203032 | 31 | 141 | 1.6 | 12.9 | 0.00 | 0.00 | 0.00 | 44 | 1003.4 |
| 20260505202530 | 31 | 145 | 3.2 | 12.9 | 0.00 | 0.00 | 0.00 | 44 | 1003.2 |
| 20260505202033 | 31 | 165 | 1.6 | 9.7 | 0.00 | 0.00 | 0.00 | 45 | 1003.4 |
| 20260505201530 | 31 | 140 | 1.6 | 9.7 | 0.00 | 0.00 | 0.00 | 44 | 1003.4 |
| 20260505201027 | 31 | 156 | 0.0 | 11.3 | 0.00 | 0.00 | 0.00 | 46 | 1003.5 |
| 20260505200526 | 31 | 181 | 3.2 | 11.3 | 0.00 | 0.00 | 0.00 | 45 | 1003.4 |
| 20260505200025 | 31 | 176 | 3.2 | 8.0 | 0.00 | 0.00 | 0.00 | 44 | 1003.5 |
| 20260505195523 | 31 | 141 | 1.6 | 11.3 | 0.00 | 0.00 | 0.00 | 45 | 1003.5 |
| 20260505195022 | 31 | 30 | 3.2 | 8.0 | 0.00 | 0.00 | 0.00 | 46 | 1003.5 |
| 20260505194032 | 30 | 247 | 1.6 | 9.7 | 0.00 | 0.00 | 0.00 | 46 | 1003.6 |
| 20260505193522 | 31 | 288 | 1.6 | 9.7 | 0.00 | 0.00 | 0.00 | 46 | 1003.6 |
| 20260505193021 | 30 | 146 | 3.2 | 6.4 | 0.00 | 0.00 | 0.00 | 45 | 1003.6 |
| 20260505192520 | 30 | 202 | 1.6 | 8.0 | 0.00 | 0.00 | 0.00 | 46 | 1003.6 |
| 20260505192019 | 30 | 111 | 1.6 | 8.0 | 0.00 | 0.00 | 0.00 | 46 | 1003.7 |
| 20260505191519 | 30 | 341 | 1.6 | 8.0 | 0.00 | 0.00 | 0.00 | 47 | 1003.6 |
| 20260505191016 | 30 | 216 | 3.2 | 11.3 | 0.00 | 0.00 | 0.00 | 48 | 1003.6 |
| 20260505190513 | 29 | 261 | 3.2 | 11.3 | 0.00 | 0.00 | 0.00 | 48 | 1003.6 |
| 20260505190013 | 29 | 101 | 1.6 | 6.4 | 0.00 | 0.00 | 0.00 | 49 | 1003.7 |
| 20260505185513 | 29 | 168 | 1.6 | 6.4 | 0.00 | 0.00 | 0.00 | 49 | 1003.7 |
| 20260505185009 | 28 | 142 | 3.2 | 6.4 | 0.00 | 0.00 | 0.00 | 50 | 1003.8 |
| 20260505184007 | 28 | 153 | 3.2 | 9.7 | 0.00 | 0.00 | 0.00 | 51 | 1003.8 |
| 20260505183505 | 28 | 143 | 1.6 | 12.9 | 0.00 | 0.00 | 0.00 | 50 | 1003.9 |
| 20260505183003 | 28 | 112 | 3.2 | 12.9 | 0.00 | 0.00 | 0.00 | 50 | 1003.8 |
| 20260505182503 | 28 | 97 | 4.8 | 12.9 | 0.00 | 0.00 | 0.00 | 50 | 1003.8 |
| 20260505182001 | 28 | 104 | 3.2 | 9.7 | 0.00 | 0.00 | 0.00 | 51 | 1003.8 |
| 20260505181641 | 28 | 86 | 1.6 | 12.9 | 0.00 | 0.00 | 0.00 | 51 | 1003.9 |
| 20260505181100 | 28 | 103 | 4.8 | 12.9 | 0.00 | 0.00 | 0.00 | 50 | 1003.9 |
| 20260505180559 | 28 | 213 | 3.2 | 9.7 | 0.00 | 0.00 | 0.00 | 50 | 1003.8 |
| 20260505180502 | 28 | 214 | 4.8 | 9.7 | 0.00 | 0.00 | 0.00 | 50 | 1003.8 |
| 20260505180106 | 28 | 202 | 3.2 | 11.3 | 0.00 | 0.00 | 0.00 | 50 | 1003.9 |
| 20260505175558 | 28 | 151 | 4.8 | 11.3 | 0.00 | 0.00 | 0.00 | 50 | 1003.8 |
| 20260505175056 | 28 | 153 | 1.6 | 8.0 | 0.00 | 0.00 | 0.00 | 51 | 1003.7 |
| 20260505174656 | 27 | 164 | 4.8 | 17.7 | 0.00 | 0.00 | 0.00 | 51 | 1003.9 |
| 20260505174005 | 27 | 177 | 3.2 | 17.7 | 0.00 | 0.00 | 0.00 | 51 | 1003.9 |
| 20260505173601 | 27 | 142 | 3.2 | 17.7 | 0.00 | 0.00 | 0.00 | 52 | 1004.0 |
| 20260505173058 | 27 | 149 | 4.8 | 11.3 | 0.00 | 0.00 | 0.00 | 52 | 1004.0 |
| 20260505172557 | 27 | 84 | 3.2 | 11.3 | 0.00 | 0.00 | 0.00 | 51 | 1004.0 |
| 20260505172055 | 27 | 165 | 3.2 | 9.7 | 0.00 | 0.00 | 0.00 | 52 | 1004.1 |
| 20260505171601 | 27 | 95 | 3.2 | 11.3 | 0.00 | 0.00 | 0.00 | 52 | 1004.1 |
| 20260505171053 | 27 | 150 | 4.8 | 11.3 | 0.00 | 0.00 | 0.00 | 52 | 1004.1 |
| 20260505170652 | 27 | 136 | 1.6 | 9.7 | 0.00 | 0.00 | 0.00 | 52 | 1004.2 |
| 20260505170052 | 26 | 202 | 3.2 | 12.9 | 0.00 | 0.00 | 0.00 | 52 | 1004.2 |
| 20260505165550 | 27 | 113 | 4.8 | 12.9 | 0.00 | 0.00 | 0.00 | 52 | 1004.2 |
| 20260505165049 | 26 | 245 | 1.6 | 9.7 | 0.00 | 0.00 | 0.00 | 53 | 1004.1 |
| 20260505164648 | 26 | 178 | 1.6 | 11.3 | 0.00 | 0.00 | 0.00 | 53 | 1004.2 |
| 20260505164042 | 26 | 183 | 1.6 | 11.3 | 0.00 | 0.00 | 0.00 | 53 | 1004.1 |
| 20260505163544 | 26 | 127 | 3.2 | 17.7 | 0.00 | 0.00 | 0.00 | 53 | 1004.1 |
| 20260505163040 | 26 | 224 | 4.8 | 17.7 | 0.00 | 0.00 | 0.00 | 52 | 1004.1 |
| 20260505162538 | 26 | 120 | 6.4 | 17.7 | 0.00 | 0.00 | 0.00 | 53 | 1003.9 |
| 20260505162039 | 26 | 172 | 3.2 | 17.7 | 0.00 | 0.00 | 0.00 | 53 | 1004.0 |
| 20260505161537 | 26 | 144 | 4.8 | 17.7 | 0.00 | 0.00 | 0.00 | 52 | 1004.0 |
| 20260505161037 | 26 | 153 | 4.8 | 17.7 | 0.00 | 0.00 | 0.00 | 52 | 1003.9 |
| 20260505160535 | 26 | 173 | 1.6 | 9.7 | 0.00 | 0.00 | 0.00 | 54 | 1003.8 |
| 20260505153038 | 25 | 226 | 3.2 | 19.3 | 0.00 | 0.00 | 0.00 | 54 | 1003.7 |
| 20260505152527 | 25 | 323 | 4.8 | 19.3 | 0.00 | 0.00 | 0.00 | 54 | 1003.7 |
| 20260505152025 | 25 | 145 | 6.4 | 20.9 | 0.00 | 0.00 | 0.00 | 54 | 1003.8 |
| 20260505151524 | 25 | 72 | 6.4 | 20.9 | 0.00 | 0.00 | 0.00 | 54 | 1003.9 |
| 20260505151022 | 25 | 140 | 4.8 | 9.7 | 0.00 | 0.00 | 0.00 | 54 | 1004.0 |
| 20260505150522 | 24 | 270 | 3.2 | 12.9 | 0.00 | 0.00 | 0.00 | 55 | 1003.9 |
| 20260505140510 | 22 | 153 | 1.6 | 12.9 | 0.00 | 0.00 | 0.00 | 58 | 1004.1 |
| 20260505124556 | 22 | 192 | 3.2 | 14.5 | 0.00 | 0.00 | 0.00 | 59 | 1003.5 |
| 20260505124057 | 22 | 68 | 3.2 | 11.3 | 0.00 | 0.00 | 0.00 | 59 | 1003.6 |
| 20260505123657 | 22 | 203 | 1.6 | 8.0 | 0.00 | 0.00 | 0.00 | 59 | 1003.5 |
| 20260505123059 | 22 | 145 | 3.2 | 11.3 | 0.00 | 0.00 | 0.00 | 59 | 1003.2 |
| 20260505122555 | 21 | 154 | 1.6 | 12.9 | 0.00 | 0.00 | 0.00 | 59 | 1003.1 |
| 20260505122053 | 21 | 231 | 3.2 | 20.9 | 0.00 | 0.00 | 0.00 | 59 | 1003.1 |
| 20260505121553 | 21 | 217 | 3.2 | 20.9 | 0.00 | 0.00 | 0.00 | 60 | 1003.2 |
| 20260505121052 | 21 | 236 | 0.0 | 11.3 | 0.00 | 0.00 | 0.00 | 60 | 1003.3 |
| 20260505120555 | 21 | 133 | 3.2 | 11.3 | 0.00 | 0.00 | 0.00 | 60 | 1003.2 |
| 20260505120110 | 21 | 243 | 3.2 | 8.0 | 0.00 | 0.00 | 0.00 | 60 | 1003.3 |
| 20260505115550 | 21 | 252 | 1.6 | 6.4 | 0.00 | 0.00 | 0.00 | 60 | 1003.0 |
| 20260505115049 | 21 | 176 | 1.6 | 14.5 | 0.00 | 0.00 | 0.00 | 59 | 1002.9 |
| 20260505114549 | 21 | 141 | 1.6 | 14.5 | 0.00 | 0.00 | 0.00 | 60 | 1002.9 |
| 20260505114051 | 21 | 128 | 3.2 | 14.5 | 0.00 | 0.00 | 0.00 | 60 | 1002.9 |
| 20260505113553 | 21 | 105 | 0.0 | 16.1 | 0.00 | 0.00 | 0.00 | 60 | 1003.2 |
| 20260505113051 | 21 | 163 | 0.0 | 17.7 | 0.00 | 0.00 | 0.00 | 60 | 1002.9 |
| 20260505112548 | 21 | 345 | 3.2 | 17.7 | 0.00 | 0.00 | 0.00 | 60 | 1002.9 |
| 20260505112049 | 21 | 140 | 1.6 | 11.3 | 0.00 | 0.00 | 0.00 | 60 | 1002.9 |
| 20260505111547 | 21 | 134 | 3.2 | 11.3 | 0.00 | 0.00 | 0.00 | 59 | 1003.0 |
| 20260505111048 | 21 | 215 | 1.6 | 12.9 | 0.00 | 0.00 | 0.00 | 59 | 1003.0 |
| 20260505110548 | 21 | 147 | 3.2 | 17.7 | 0.00 | 0.00 | 0.00 | 59 | 1003.0 |
| 20260505110106 | 21 | 168 | 4.8 | 17.7 | 0.00 | 0.00 | 0.00 | 59 | 1002.7 |
| 20260505102039 | 21 | 152 | 3.2 | 11.3 | 0.00 | 0.00 | 0.00 | 60 | 1003.1 |
| 20260505101538 | 21 | 200 | 1.6 | 9.7 | 0.00 | 0.00 | 0.00 | 59 | 1002.9 |
| 20260505101038 | 21 | 79 | 1.6 | 16.1 | 0.00 | 0.00 | 0.00 | 59 | 1003.0 |
| 20260505100536 | 21 | 247 | 1.6 | 16.1 | 0.00 | 0.00 | 0.00 | 59 | 1003.0 |
| 20260505100037 | 21 | 212 | 1.6 | 12.9 | 0.00 | 0.00 | 0.00 | 59 | 1002.9 |
| 20260505095535 | 21 | 155 | 1.6 | 12.9 | 0.00 | 0.00 | 0.00 | 59 | 1002.9 |
| 20260505095036 | 21 | 151 | 6.4 | 11.3 | 0.00 | 0.00 | 0.00 | 59 | 1003.1 |
| 20260505094534 | 21 | 137 | 3.2 | 20.9 | 0.00 | 0.00 | 0.00 | 59 | 1003.1 |
| 20260505094035 | 21 | 96 | 6.4 | 20.9 | 0.00 | 0.00 | 0.00 | 59 | 1003.2 |
| 20260505093535 | 21 | 181 | 4.8 | 12.9 | 0.00 | 0.00 | 0.00 | 59 | 1003.3 |
| 20260505093035 | 21 | 147 | 4.8 | 14.5 | 0.00 | 0.00 | 0.00 | 60 | 1003.2 |
| 20260505092534 | 21 | 177 | 4.8 | 14.5 | 0.00 | 0.00 | 0.00 | 60 | 1003.4 |
| 20260505092035 | 21 | 82 | 3.2 | 14.5 | 0.00 | 0.00 | 0.00 | 60 | 1003.5 |
| 20260505091533 | 21 | 139 | 3.2 | 14.5 | 0.00 | 0.00 | 0.00 | 60 | 1003.4 |
| 20260505091036 | 21 | 127 | 1.6 | 12.9 | 0.00 | 0.00 | 0.00 | 60 | 1003.4 |
| 20260505090531 | 21 | 181 | 1.6 | 12.9 | 0.00 | 0.00 | 0.00 | 60 | 1003.5 |
| 20260505090036 | 21 | 154 | 4.8 | 12.9 | 0.00 | 0.00 | 0.00 | 60 | 1003.5 |
| 20260505085530 | 21 | 153 | 3.2 | 14.5 | 0.00 | 0.00 | 0.00 | 60 | 1003.4 |
| 20260505085029 | 21 | 148 | 3.2 | 14.5 | 0.00 | 0.00 | 0.00 | 60 | 1003.6 |
| 20260505084531 | 21 | 132 | 3.2 | 16.1 | 0.00 | 0.00 | 0.00 | 60 | 1003.5 |
| 20260505084026 | 21 | 251 | 4.8 | 16.1 | 0.00 | 0.00 | 0.00 | 60 | 1003.5 |
| 20260505083529 | 21 | 122 | 6.4 | 16.1 | 0.00 | 0.00 | 0.00 | 61 | 1003.4 |
| 20260505083024 | 21 | 147 | 1.6 | 16.1 | 0.00 | 0.00 | 0.00 | 61 | 1003.5 |
| 20260505082525 | 21 | 191 | 4.8 | 16.1 | 0.00 | 0.00 | 0.00 | 61 | 1003.5 |
| 20260505082023 | 21 | 109 | 4.8 | 17.7 | 0.00 | 0.00 | 0.00 | 61 | 1003.5 |
| 20260505081623 | 21 | 139 | 3.2 | 17.7 | 0.00 | 0.00 | 0.00 | 61 | 1003.5 |
| 20260505081024 | 21 | 127 | 3.2 | 14.5 | 0.00 | 0.00 | 0.00 | 61 | 1003.6 |
| 20260505080520 | 21 | 231 | 1.6 | 14.5 | 0.00 | 0.00 | 0.00 | 61 | 1003.5 |
| 20260505080020 | 21 | 215 | 4.8 | 12.9 | 0.00 | 0.00 | 0.00 | 60 | 1003.6 |
| 20260505075516 | 21 | 153 | 4.8 | 14.5 | 0.00 | 0.00 | 0.00 | 60 | 1003.7 |
| 20260505075016 | 21 | 189 | 1.6 | 14.5 | 0.00 | 0.00 | 0.00 | 60 | 1003.7 |
| 20260505074515 | 21 | 116 | 3.2 | 17.7 | 0.00 | 0.00 | 0.00 | 60 | 1003.9 |
| 20260505074017 | 21 | 189 | 4.8 | 17.7 | 0.00 | 0.00 | 0.00 | 60 | 1003.9 |
| 20260505073515 | 22 | 124 | 3.2 | 14.5 | 0.00 | 0.00 | 0.00 | 60 | 1003.9 |
| 20260505073015 | 22 | 195 | 1.6 | 14.5 | 0.00 | 0.00 | 0.00 | 60 | 1004.0 |
| 20260505072513 | 22 | 163 | 3.2 | 14.5 | 0.00 | 0.00 | 0.00 | 60 | 1004.1 |
| 20260505072012 | 22 | 238 | 1.6 | 12.9 | 0.00 | 0.00 | 0.00 | 60 | 1004.3 |
| 20260505071512 | 22 | 158 | 3.2 | 12.9 | 0.00 | 0.00 | 0.00 | 60 | 1004.3 |
| 20260505071011 | 22 | 231 | 1.6 | 12.9 | 0.00 | 0.00 | 0.00 | 60 | 1004.3 |
| 20260505070510 | 22 | 215 | 3.2 | 20.9 | 0.00 | 0.00 | 0.00 | 60 | 1004.4 |
| 20260505070012 | 22 | 136 | 6.4 | 20.9 | 0.00 | 0.00 | 0.00 | 60 | 1004.3 |
| 20260505065507 | 22 | 105 | 3.2 | 16.1 | 0.00 | 0.00 | 0.00 | 60 | 1004.5 |
| 20260505065008 | 22 | 202 | 1.6 | 12.9 | 0.00 | 0.00 | 0.00 | 59 | 1004.5 |
| 20260505064508 | 22 | 122 | 1.6 | 11.3 | 0.00 | 0.00 | 0.00 | 59 | 1004.7 |
| 20260505064008 | 22 | 160 | 1.6 | 11.3 | 0.00 | 0.00 | 0.00 | 59 | 1004.7 |
| 20260505063503 | 22 | 257 | 1.6 | 9.7 | 0.00 | 0.00 | 0.00 | 59 | 1004.8 |
| 20260505063003 | 22 | 144 | 1.6 | 9.7 | 0.00 | 0.00 | 0.00 | 59 | 1004.7 |
| 20260505062603 | 22 | 145 | 0.0 | 9.7 | 0.00 | 0.00 | 0.00 | 59 | 1004.7 |
| 20260505062002 | 22 | 103 | 3.2 | 14.5 | 0.00 | 0.00 | 0.00 | 59 | 1004.8 |
| 20260505061502 | 22 | 120 | 1.6 | 17.7 | 0.00 | 0.00 | 0.00 | 59 | 1004.7 |
| 20260505061059 | 22 | 138 | 3.2 | 17.7 | 0.00 | 0.00 | 0.00 | 59 | 1004.8 |
| 20260505060606 | 22 | 240 | 1.6 | 17.7 | 0.00 | 0.00 | 0.00 | 58 | 1004.7 |
| 20260505060057 | 22 | 170 | 6.4 | 17.7 | 0.00 | 0.00 | 0.00 | 58 | 1004.7 |
| 20260505055557 | 22 | 129 | 3.2 | 16.1 | 0.00 | 0.00 | 0.00 | 58 | 1004.7 |
| 20260505055056 | 22 | 176 | 4.8 | 16.1 | 0.00 | 0.00 | 0.00 | 58 | 1004.7 |
| 20260505054554 | 22 | 153 | 3.2 | 12.9 | 0.00 | 0.00 | 0.00 | 58 | 1004.9 |
| 20260505053552 | 22 | 158 | 1.6 | 11.3 | 0.00 | 0.00 | 0.00 | 58 | 1004.9 |
| 20260505053050 | 22 | 111 | 3.2 | 9.7 | 0.00 | 0.00 | 0.00 | 57 | 1004.9 |
| 20260505052549 | 22 | 132 | 3.2 | 11.3 | 0.00 | 0.00 | 0.00 | 57 | 1005.0 |
| 20260505052049 | 22 | 167 | 3.2 | 12.9 | 0.00 | 0.00 | 0.00 | 57 | 1005.0 |
| 20260505051547 | 22 | 168 | 3.2 | 16.1 | 0.00 | 0.00 | 0.00 | 57 | 1005.0 |
| 20260505051046 | 22 | 153 | 3.2 | 16.1 | 0.00 | 0.00 | 0.00 | 56 | 1005.2 |
| 20260505050545 | 23 | 228 | 3.2 | 14.5 | 0.00 | 0.00 | 0.00 | 56 | 1005.3 |
| 20260505041540 | 23 | 80 | 1.6 | 11.3 | 0.00 | 0.00 | 0.00 | 55 | 1005.6 |
| 20260505041040 | 23 | 124 | 3.2 | 11.3 | 0.00 | 0.00 | 0.00 | 55 | 1005.5 |
| 20260505040543 | 23 | 172 | 3.2 | 12.9 | 0.00 | 0.00 | 0.00 | 55 | 1005.5 |
| 20260505040040 | 23 | 113 | 3.2 | 12.9 | 0.00 | 0.00 | 0.00 | 55 | 1005.6 |
| 20260505035539 | 23 | 250 | 1.6 | 12.9 | 0.00 | 0.00 | 0.00 | 55 | 1005.7 |
| 20260505035037 | 23 | 149 | 1.6 | 11.3 | 0.00 | 0.00 | 0.00 | 54 | 1005.5 |
| 20260505034543 | 23 | 227 | 3.2 | 12.9 | 0.00 | 0.00 | 0.00 | 54 | 1005.5 |
| 20260505033539 | 23 | 146 | 4.8 | 12.9 | 0.00 | 0.00 | 0.00 | 54 | 1005.4 |
| 20260505033039 | 23 | 154 | 3.2 | 11.3 | 0.00 | 0.00 | 0.00 | 53 | 1005.5 |
| 20260505032539 | 23 | 289 | 3.2 | 14.5 | 0.00 | 0.00 | 0.00 | 53 | 1005.6 |
| 20260505032037 | 23 | 49 | 3.2 | 14.5 | 0.00 | 0.00 | 0.00 | 53 | 1005.6 |
| 20260505031536 | 23 | 89 | 1.6 | 9.7 | 0.00 | 0.00 | 0.00 | 53 | 1005.5 |
| 20260505031038 | 23 | 1 | 3.2 | 14.5 | 0.00 | 0.00 | 0.00 | 53 | 1005.6 |
| 20260505030537 | 23 | 170 | 4.8 | 14.5 | 0.00 | 0.00 | 0.00 | 53 | 1005.6 |
| 20260505030045 | 23 | 153 | 4.8 | 12.9 | 0.00 | 0.00 | 0.00 | 53 | 1005.5 |
| 20260505025535 | 23 | 314 | 3.2 | 17.7 | 0.00 | 0.00 | 0.00 | 53 | 1005.6 |
| 20260505025034 | 23 | 214 | 6.4 | 17.7 | 0.00 | 0.00 | 0.00 | 52 | 1005.6 |
| 20260505024534 | 23 | 158 | 3.2 | 11.3 | 0.00 | 0.00 | 0.00 | 52 | 1005.5 |
| 20260505023533 | 23 | 113 | 1.6 | 19.3 | 0.00 | 0.00 | 0.00 | 52 | 1005.6 |
| 20260505023041 | 23 | 223 | 4.8 | 19.3 | 0.00 | 0.00 | 0.00 | 52 | 1005.5 |
| 20260505022534 | 24 | 176 | 0.0 | 14.5 | 0.00 | 0.00 | 0.00 | 52 | 1005.4 |
| 20260505022031 | 24 | 197 | 4.8 | 14.5 | 0.00 | 0.00 | 0.00 | 52 | 1005.4 |
| 20260505021532 | 24 | 123 | 1.6 | 11.3 | 0.00 | 0.00 | 0.00 | 52 | 1005.4 |
| 20260505021030 | 24 | 111 | 3.2 | 14.5 | 0.00 | 0.00 | 0.00 | 52 | 1005.2 |
| 20260505020529 | 24 | 136 | 3.2 | 14.5 | 0.00 | 0.00 | 0.00 | 52 | 1005.4 |
| 20260505020029 | 24 | 167 | 3.2 | 14.5 | 0.00 | 0.00 | 0.00 | 51 | 1005.2 |
| 20260505015528 | 24 | 134 | 1.6 | 9.7 | 0.00 | 0.00 | 0.00 | 51 | 1005.4 |
| 20260505015028 | 24 | 217 | 3.2 | 11.3 | 0.00 | 0.00 | 0.00 | 51 | 1005.2 |
| 20260505014535 | 24 | 86 | 3.2 | 11.3 | 0.00 | 0.00 | 0.00 | 51 | 1005.2 |
| 20260505013527 | 24 | 112 | 0.0 | 11.3 | 0.00 | 0.00 | 0.00 | 51 | 1005.3 |
| 20260505013023 | 24 | 146 | 3.2 | 20.9 | 0.00 | 0.00 | 0.00 | 51 | 1005.3 |
| 20260505012524 | 24 | 161 | 3.2 | 20.9 | 0.00 | 0.00 | 0.00 | 51 | 1005.4 |
| 20260505012022 | 25 | 88 | 3.2 | 9.7 | 0.00 | 0.00 | 0.00 | 50 | 1005.4 |
| 20260505011524 | 25 | 141 | 4.8 | 11.3 | 0.00 | 0.00 | 0.00 | 50 | 1005.2 |
| 20260505011020 | 25 | 229 | 3.2 | 11.3 | 0.00 | 0.00 | 0.00 | 50 | 1005.2 |
| 20260505010521 | 25 | 143 | 1.6 | 9.7 | 0.00 | 0.00 | 0.00 | 50 | 1005.2 |
| 20260505010021 | 25 | 193 | 3.2 | 11.3 | 0.00 | 0.00 | 0.00 | 50 | 1005.2 |
| 20260505005520 | 25 | 182 | 4.8 | 11.3 | 0.00 | 0.00 | 0.00 | 50 | 1005.1 |
| 20260505005020 | 25 | 183 | 1.6 | 14.5 | 0.00 | 0.00 | 0.00 | 49 | 1005.2 |
| 20260505004530 | 25 | 115 | 6.4 | 17.7 | 0.00 | 0.00 | 0.00 | 49 | 1005.2 |
| 20260505003520 | 25 | 128 | 8.0 | 17.7 | 0.00 | 0.00 | 0.00 | 48 | 1005.2 |
| 20260505003016 | 25 | 148 | 4.8 | 17.7 | 0.00 | 0.00 | 0.00 | 48 | 1005.2 |